CZ-4 DEB

Satellite information

Favourite Embed

Satellite Type and Status

DEBRISIN ORBIT

Key statistics

Satellite CZ-4 DEB at a glance.

Uptime

9459

Days in orbit

Revolutions

≈ 13.7

Per day

Orbit

SSO

Sun Synchronous Orbit

Inclination

98.9

Latest

Satellite identification and parameters

Extended collection of information and parameters for CZ-4 DEB.

Object identification

Identified? True

Debris? True

Object name: CZ-4 DEB

International designator: 1999-057W

Object number (NORAD): 26134

Object ID (CCSDS): 26134

Country: PEOPLES REPUBLIC OF CHINA (PRC)

Current information (Y/N): Y

RCS size: SMALL

Orbital parameters

Period: 105.47 minutes

Inclination: 98.947 deg

SMA: 7394.561 km

Apoapsis: 1327.437 km

Periapsis: 705.415 km

RAAN: 60.3368 deg

Eccentricy: 0.04205939

Argument of periapsis: 1.4997 deg

Mean anomaly: 26.3831 deg

Mean motion: 13.65319093 rev/day

Mean motion (dot): 0.0000136 rev/day2

B* drag term: 0.0009385346 1/REarth

Two-line elements (TLE)

Creation date: Sept. 4, 2025, 4:29 a.m.

Reference frame: TEME

Reference center: EARTH

Epoch: Sept. 3, 2025, 10:21 a.m. UTC

TLE line 0: 0 CZ-4 DEB

TLE line 1: 1 26134U 99057W 25246.43193321 .00001360 00000-0 93853-3 0 9992

TLE line 2: 2 26134 98.9470 60.3368 0420594 1.4997 26.3831 13.65319093261940

Live tracking on map

Real-time ground track for satellite CZ-4 DEB.

In-orbit conjunctions

A list of the most updated potential collisions computed for object CZ-4 DEB.

Target Orbit TCA Probability of collision Miss distance Type
COSMOS 371 LEO 2024-08-29 15:34:23 0.0001389157 220.0 (m) PAYLOAD

Associated space launch

The CBERS (China Brazil Earth Resources Satellite) or ZY 1 (Zi Yuan) satellites are designed for global coverage and include cameras to make optical observations and a data collecting system to gather data on the environment. They are unique systems due to the use of on-board sensors which combine features that are especially designed to resolve the broad range of space and time scales involved in the monitoring and preservation of the ecosystem. They are operated jointly by the China Centre for Resources Satellite Data and Application (CRESDA) and the Brazilian INPE (Instituto Nacional de Pesquisas Espaciais, National Institute of Space Research).

CZ-4 DEB was lifted into orbit during the mission ‘Long March 4B | Zi Yuan 1-1’, on board a Long March 4B space rocket.

The launch took place on Oct. 14, 1999, 3:15 a.m. from Launch Complex 7.

For more information about the launch, click the button.

Launch to space Long March 4B | Zi Yuan 1-1
Long March 4B | Zi Yuan 1-1

Agency: N/A

Status: Launch Successful

Launch date: Oct. 14, 1999, 3:15 a.m. UTC

Rocket: Long March 4B

Launch pad: Launch Complex 7

Location: Taiyuan Satellite Launch Center, People's Republic of China

...

Latest news about this satellite

There are no fresh news available about this satellite. Check back as we update our databases every day.


Newsletter sign-up

Weekly statistics, charts and insights to help you stay on top of the space industry.